Regional Weather Roundup
Issued by NWS Sterling, VA

Home | Current Version | Previous Version | Graphics & Text | Print | Product List | Glossary On
Versions: 1 2 3 4 5 6 7 8 9 10 11 12 13 14 15 16 17 18 19 20 21 22 23 24 25 26 27 28 29 30 31 32 33 34 35 36 37 38 39 40 41 42 43 44 45 46 47 48 49 50
000
ASUS41 KLWX 281810
RWRLWX

REGIONAL WEATHER ROUNDUP
NATIONAL WEATHER SERVICE BALTIMORE MD/WASHINGTON DC
100 PM EST FRI NOV 28 2014

Note: "FAIR" indicates few or no clouds below 12,000 feet
with no significant weather and/or obstructions to visibility.
 TC=TEMPERATURE CELSIUS

 * =Non NWS site. Station does not report precipitation (e.g. rain,
    snow, etc.), thunder, or fog.

DCZ001-MDZ009-015-VAZ040>042-051-053>054-281900-
WASHINGTON METRO

CITY           SKY/WX    TMP DP  RH WIND       PRES   REMARKS
WASHINGTON NAT PTSUNNY   40  18  41 NW14G20   30.30S
DULLES         PTSUNNY   36  20  52 NW17G23   30.29S WCI  26
ANDREWS AFB    MOSUNNY   37  19  47 NW14      30.27S WCI  28
FT BELVOIR     CLOUDY    38  18  43 NW14      30.30S
QUANTICO       CLOUDY    39  18  42 N16G22    30.31S
COLLEGE PARK*  PTSUNNY   37  19  48 W9        30.28S
LEESBURG*      CLOUDY    36  25  64 W10G18    30.29S WCI  28
GAITHERSBURG*  PTSUNNY   36  19  51 NW8G16    30.30F

$$

MDZ006>007-011-014-281900-
BALTIMORE METRO

CITY           SKY/WX    TMP DP  RH WIND       PRES   REMARKS
BWI AIRPORT    MOSUNNY   36  15  42 NW13G25   30.26F WCI  27
MD SCIENCE CTR   N/A     36  14  40 MISG      30.28S
MARTIN STATE   MOSUNNY   37  19  48 W17       30.28S WCI  28
ANNAPOLIS      MOSUNNY   39  17  41 NW12G23   30.26S
FORT MEADE*    CLOUDY    37  19  48 NW13G18   30.29F

$$

MDZ012-015-019>023-281900-
MARYLAND EASTERN SHORE

CITY           SKY/WX    TMP DP  RH WIND       PRES   REMARKS
OCEAN CITY     MOSUNNY   41  19  41 NW17G26   30.22F
SALISBURY      MOSUNNY   42  20  41 N15G26    30.23F
BAY BRIDGE AP*   N/A     39  18  41 NW13G20   30.26F
CAMBRIDGE*     MOSUNNY   41  19  42 NW15G23   30.25S
EASTON*        PTSUNNY   41  21  45 NW14G24   30.29F

$$

MDZ017>025-281900-
SOUTHERN MARYLAND

CITY           SKY/WX    TMP DP  RH WIND       PRES   REMARKS
PATUXENT RIVER MOSUNNY   41  20  43 NW16      30.26F
ST INIGOES     MOSUNNY   42  19  39 W12       30.25F
LEONARDTOWN*   PTSUNNY   37  19  48 NW7       30.27S

$$

MDZ003>005-281900-
NORTH CENTRAL MARYLAND

CITY           SKY/WX    TMP DP  RH WIND       PRES   REMARKS
FREDERICK*     CLOUDY    37  14  38 N9        30.30F
HAGERSTOWN APT CLOUDY    33  19  56 NW14      30.25F WCI  23
WESTMINSTER*   CLOUDY    34  16  47 NW10      30.24S WCI  26

$$

MDZ501>502-281900-
WESTERN MARYLAND

CITY           SKY/WX    TMP DP  RH WIND       PRES   REMARKS
OAKLAND*       CLOUDY    19 N/A N/A NW7       30.16F FOG
CUMBERLAND*    PTSUNNY   32  18  55 N12G17    30.32F WCI  23

$$

VAZ025>031-281900-
SHENANDOAH VALLEY

CITY           SKY/WX    TMP DP  RH WIND       PRES   REMARKS
WINCHESTER*    CLOUDY    34  18  51 W16       30.26F WCI  23
FRONT ROYAL*   CLOUDY    36  18  48 W8        30.27F
LURAY*         MOCLDY    36  19  51 SW5       30.28F
NEW MARKET*    MOCLDY    33  16  49 W7        30.28F
STAUNTON*      SUNNY     34  15  46 NW7       30.29F
WAYNESBORO*    FAIR      32  15  49 SW6       30.26F

$$

WVZ021-048>050-054>055-281900-
EASTERN WEST VIRGINIA PANHANDLE

CITY           SKY/WX    TMP DP  RH WIND       PRES   REMARKS
MARTINSBURG    PTSUNNY   36  16  44 NW13      30.27F WCI  27
PETERSBURG*    PTSUNNY   32  13  46 W6        30.30F

$$

VAZ036>039-050-281900-
CENTRAL FOOTHILLS

CITY           SKY/WX    TMP DP  RH WIND       PRES   REMARKS
CHARLOTTESVILL SUNNY     38  16  40 NW7       30.28F
CULPEPER*      MOSUNNY   41  18  38 NW6       30.29F
ORANGE*        MOSUNNY   39  19  45 SW8G17    30.30F
GORDONSVILLE*  FAIR      38  15  39 NW8       30.28F
WARRENTON*     PTSUNNY   40  26  58 NW9G18    30.28F

$$

VAZ055>057-281900-
NORTH AND CENTRAL PIEDMONT

CITY           SKY/WX    TMP DP  RH WIND       PRES   REMARKS
FREDERICKSBRG* MOSUNNY   41  19  40 NW12G20   30.28F
STAFFORD*      PTSUNNY   40  19  41 N7        30.33S

$$

NCZ024-NYZ072-PAZ021-071-VAZ022-071-281900-
OTHER REGIONAL OBSERVATIONS

CITY           SKY/WX    TMP DP  RH WIND       PRES   REMARKS
NEW YORK CITY  CLOUDY    36  19  50 VRB6G22   30.17F
PHILADELPHIA   MOSUNNY   37  17  44 NW15      30.22F WCI  28
PITTSBURGH     PTSUNNY   27  15  61 NW8       30.27F WCI  19
ROANOKE        MOSUNNY   36  15  42 SW3       30.31F
RICHMOND       MOSUNNY   44  19  36 NW12      30.28F
RALEIGH        SUNNY     42  19  39 NE6       30.30F

$$

ANZ530>537-281900-
MARINE OBSERVATIONS

STATION/POSITION TIME  TEMP    WIND        PRES
                       AIR SEA DIR/SP/G
                 (UTC) (F)     (DEG/KT/KT) (MB)
THOMAS PT LIGHT  1800   37 46  300/ 18/ 20 1025.5F
BALT KEY BRIDGE  1800   36     290/ 16/ 18 1024.7S
COVE POINT       1800   37     350/ 17/ 22 1024.5S
LEWISETTA        1800   39 46  330/ 11/ 18 1024.6F
SOLOMONS ISLAND  1800      47                N/A
PINEY POINT      1800          310/ 18/ 21   N/A

$$



USA.gov is the U.S. government's official web portal to all federal, state and local government web resources and services.